RH
9 9 9 9 9 9 9 9 9 8 8 8 8 8 8 8 8 8 8 8 8 8 7 7 7 6 6 6 5 5 5 5 5 5 6 8 9 11 14 17 19 20 22 23 24 25 26 26 27 27 27 27 28 28 29 30 31 32 32 32 30 27 23 21 21 22 23 26 30 35 42 51 59 62 59 48 41 41 54 68 85 97 98 99 100 100 100 99 98 97 99 98 99 100 100 93 84 76 68 48 40 44 62
9 9 9 9 9 9 9 9 9 8 8 8 8 8 8 8 8 8 8 8 8 7 7 6 6 6 6 6 6 5 5 5 6 7 9 10 12 15 18 20 21 23 24 25 26 26 26 27 27 27 27 27 27 28 29 30 31 32 34 35 35 34 33 30 27 26 25 25 26 28 30 34 39 45 52 47 41 36 33 46 68 89 96 98 99 99 98 96 96 97 100 100 100 100 100 97 91 84 80 60 43 41 64
10 9 9 9 9 9 9 9 9 8 8 8 8 8 8 8 8 8 8 7 7 6 6 6 6 6 6 6 6 6 7 7 9 10 12 13 16 18 20 22 24 25 26 26 26 26 26 26 26 26 26 26 26 27 28 29 30 31 33 33 33 34 35 36 35 33 31 29 28 27 27 28 29 33 40 43 41 37 31 29 45 68 91 94 97 97 95 92 93 96 100 100 100 100 100 99 96 93 91 77 54 42 63
10 9 9 9 9 9 9 9 9 8 8 8 8 8 8 8 8 8 8 7 6 6 6 6 6 6 7 7 7 8 9 10 12 13 15 17 19 21 23 24 25 26 26 26 26 26 26 25 25 24 24 24 25 25 26 26 28 29 30 30 30 29 30 32 34 35 35 34 32 30 29 28 27 28 30 34 36 36 35 29 29 42 76 88 92 93 92 88 89 93 100 100 100 100 100 100 99 98 97 94 73 52 54
9 9 9 9 9 9 9 9 8 8 8 8 8 8 8 8 8 8 7 6 6 6 6 6 6 7 8 9 9 10 12 14 15 16 17 19 21 23 24 25 25 26 26 25 25 24 23 23 22 22 21 22 22 23 23 24 25 27 29 29 28 28 29 30 31 32 34 35 35 34 32 31 29 28 26 27 29 32 35 34 28 27 45 70 82 86 86 85 84 87 96 99 100 100 100 100 100 99 97 99 91 74 45
9 9 9 9 9 9 9 9 8 8 8 8 8 8 8 8 8 8 7 7 6 6 6 6 7 9 10 10 12 14 16 17 18 18 20 21 23 24 25 25 25 24 24 23 22 21 20 19 19 18 18 19 19 20 20 21 23 25 27 28 29 30 34 34 33 32 33 33 34 35 35 34 32 30 27 25 25 27 31 34 32 28 25 41 57 69 73 77 77 81 94 98 100 100 100 100 100 99 97 95 97 89 58
9 9 9 9 9 9 9 8 8 8 8 7 7 8 8 8 8 8 8 7 7 6 5 6 8 10 11 13 15 17 19 19 20 21 22 23 24 25 24 24 23 22 21 19 18 18 17 16 16 16 16 16 17 18 18 19 21 24 26 27 28 32 39 36 35 35 36 35 34 34 35 35 34 33 31 28 26 26 26 30 33 33 29 27 31 38 47 59 66 74 90 96 99 100 100 100 100 100 99 96 97 95 84
9 9 9 9 9 8 8 8 8 8 8 7 8 8 8 8 8 8 8 7 7 6 6 7 9 11 14 16 18 20 21 21 22 23 24 24 24 24 23 21 20 19 17 16 15 14 13 13 13 14 14 15 15 16 17 18 20 22 23 24 27 30 34 37 37 36 36 36 36 35 34 34 34 34 34 32 30 28 26 28 30 32 33 30 27 25 24 35 50 66 79 89 96 99 99 99 99 100 100 99 98 98 96
9 9 9 9 8 8 8 8 8 8 8 8 8 8 8 8 8 8 7 7 7 6 7 8 10 13 16 18 19 20 21 22 23 24 24 24 23 22 20 19 17 16 14 13 12 11 11 11 12 12 13 13 14 16 17 18 19 20 20 22 26 31 35 36 37 37 36 36 35 34 33 33 33 33 34 34 33 31 29 28 29 30 33 33 32 29 20 23 39 57 67 78 88 96 98 96 95 96 99 99 99 99 99
9 9 9 8 8 8 8 8 8 8 8 8 9 9 9 8 8 8 7 7 7 7 8 9 12 15 17 19 20 22 23 24 24 23 23 22 21 19 18 16 14 13 11 10 10 10 10 10 11 12 12 13 14 15 16 17 17 18 21 25 30 34 36 37 39 39 38 35 34 33 33 33 32 31 33 34 35 34 33 31 30 30 31 33 34 31 24 27 42 58 63 69 80 91 96 96 95 94 95 97 99 99 100
9 9 9 8 8 8 8 8 8 8 8 9 9 9 9 8 8 8 7 6 7 7 8 10 13 16 18 20 22 23 25 24 23 22 20 19 18 16 14 13 11 10 9 9 9 9 9 10 10 11 11 12 13 14 15 16 18 20 23 34 40 44 46 48 48 47 46 40 35 32 33 33 32 31 31 32 34 35 36 35 33 32 32 33 35 33 28 32 48 65 69 68 76 87 96 98 98 96 95 96 98 100 100
9 9 8 8 8 8 8 8 8 8 8 8 8 8 8 8 8 8 7 7 7 7 9 12 15 18 20 22 24 25 25 24 22 20 18 16 15 13 12 10 9 8 7 8 8 8 9 9 10 10 11 12 13 14 15 16 19 23 26 44 57 64 62 62 61 59 57 51 42 34 30 31 32 32 31 32 34 36 39 40 38 35 33 34 35 34 32 32 45 61 72 68 75 85 95 97 98 98 96 95 97 99 100
9 8 8 8 8 8 8 8 8 8 8 8 8 8 8 8 8 7 7 7 7 8 10 13 16 19 22 24 25 25 24 23 20 18 16 14 12 11 10 8 7 7 7 7 7 8 8 9 10 10 11 12 13 14 14 18 20 24 31 54 68 75 78 72 70 68 66 62 52 41 33 30 30 31 32 34 36 38 41 44 44 41 37 36 35 35 34 33 38 48 61 63 71 82 90 92 96 99 98 95 96 99 100
8 8 8 8 8 8 8 8 7 7 7 8 8 8 8 8 8 7 7 7 8 9 12 15 18 22 24 26 26 25 24 22 20 18 15 13 11 10 8 7 7 6 7 7 7 8 8 9 10 10 11 12 13 14 15 18 20 25 37 55 66 73 80 76 73 70 67 65 58 50 47 39 34 32 32 34 37 40 43 47 49 48 43 40 38 37 36 35 35 38 46 51 62 75 88 87 93 99 100 94 96 100 100
8 8 8 8 7 7 8 7 7 7 7 7 8 8 8 8 8 7 7 7 9 11 14 18 22 25 26 27 26 25 24 23 21 19 17 14 12 10 9 8 7 7 7 7 7 8 8 9 10 10 11 12 12 13 15 17 19 27 41 56 65 70 75 73 68 63 58 55 52 53 60 53 45 38 33 33 36 41 46 50 51 50 49 46 43 41 40 39 37 36 36 41 48 61 83 81 90 99 100 95 97 100 100
8 8 8 8 8 8 8 7 7 7 7 7 7 8 8 8 8 7 7 8 9 12 16 20 25 27 29 28 28 27 26 25 23 21 18 16 13 12 11 10 10 9 9 9 8 8 9 9 10 10 11 13 14 15 17 17 22 30 43 62 75 81 79 73 67 60 54 48 44 46 55 65 60 50 40 36 36 41 48 51 51 49 50 48 46 44 42 42 40 37 34 35 37 47 70 75 87 98 99 98 99 100 100
8 8 8 8 8 8 8 7 7 7 7 7 7 8 8 8 8 8 7 8 10 13 18 23 27 30 31 31 30 30 29 27 26 24 21 18 17 15 15 14 13 13 12 11 11 10 11 11 12 13 14 16 18 20 22 24 30 38 46 64 79 89 91 81 73 66 59 51 44 43 48 65 67 59 49 43 39 39 45 50 51 50 49 49 47 45 44 43 41 38 35 34 33 37 53 64 80 93 97 98 99 100 100
8 8 8 8 8 8 8 7 7 7 7 7 7 7 8 8 8 8 7 9 11 15 21 26 29 31 33 33 33 33 32 31 29 27 25 23 21 21 20 20 19 18 16 15 15 15 15 16 16 17 18 20 23 26 32 37 47 55 56 65 76 86 93 89 82 74 68 60 54 50 50 57 60 59 54 49 43 39 40 44 47 50 51 52 51 50 48 45 43 40 37 35 32 33 39 49 66 83 93 97 99 100 100
9 9 9 8 8 8 8 7 7 7 7 7 7 7 8 8 8 8 8 10 13 18 25 29 32 33 35 35 35 35 35 34 32 30 29 28 27 26 26 26 24 23 21 20 20 21 21 22 22 21 21 23 27 35 46 59 73 82 78 70 71 76 84 85 80 75 72 66 62 59 55 54 54 56 54 53 48 42 37 38 42 45 48 52 54 54 52 50 47 43 40 36 34 32 31 37 50 67 82 91 97 100 99
9 9 9 9 8 8 8 7 7 7 7 7 7 7 8 8 8 8 9 11 16 22 28 31 34 35 37 38 38 37 37 36 35 34 33 32 32 32 31 30 29 27 25 26 26 27 28 28 27 26 26 28 32 39 52 72 89 98 95 81 73 70 75 75 75 74 74 72 71 68 62 56 54 53 54 56 54 48 39 36 36 38 42 46 51 53 50 49 47 45 43 39 36 33 30 31 38 50 65 79 90 97 99
9 9 9 9 8 8 8 7 7 7 7 7 7 7 7 7 8 9 10 13 18 24 30 33 35 36 39 40 39 38 38 38 37 36 35 35 35 35 35 33 32 31 30 31 32 33 33 33 34 34 35 37 38 41 49 69 87 98 100 94 89 85 83 81 82 84 85 86 85 83 76 66 58 55 58 62 62 59 52 44 38 35 35 37 40 42 42 42 43 43 44 42 40 37 34 31 32 39 50 64 77 89 96
9 9 9 9 8 8 8 8 7 7 7 7 7 7 7 7 8 9 11 14 19 25 29 32 35 37 40 41 40 39 39 39 37 36 36 37 37 37 37 36 35 35 35 36 37 37 38 38 40 42 44 45 45 45 49 63 75 85 94 98 99 98 96 95 94 94 95 95 95 94 90 78 67 62 70 75 77 76 71 61 50 39 32 32 31 31 33 35 36 39 41 42 42 42 40 35 32 33 38 50 62 73 85
9 9 9 9 8 8 8 8 7 7 7 7 6 7 7 7 8 10 13 16 20 25 28 31 35 39 42 43 42 42 42 42 39 37 37 39 40 40 39 39 39 40 41 42 42 42 43 44 46 48 49 49 49 50 53 59 64 69 78 93 99 100 100 100 99 98 99 98 98 97 96 86 76 71 79 89 92 92 88 81 67 50 36 33 30 29 29 30 31 33 35 38 40 42 43 41 37 34 32 39 48 58 68
9 9 9 9 8 8 8 8 7 7 7 6 6 6 7 8 9 11 15 19 22 26 30 32 35 40 45 46 46 46 46 45 43 41 41 42 43 43 43 44 44 45 46 46 47 47 48 49 50 51 50 49 50 52 56 59 59 59 63 84 95 99 99 100 100 100 100 99 99 98 97 91 85 81 86 91 94 94 93 86 72 57 44 39 37 35 35 34 32 31 31 32 35 38 41 43 42 40 35 33 37 44 53
9 9 9 9 8 8 8 7 7 7 6 6 6 6 7 9 10 13 18 21 25 29 33 35 38 43 47 49 50 50 50 48 46 46 46 47 48 48 48 49 49 49 50 50 50 51 52 52 52 51 49 49 49 52 56 59 59 57 57 75 88 97 98 99 100 100 100 99 99 99 98 96 93 89 89 85 85 84 80 73 66 61 56 54 52 50 50 50 48 44 39 36 34 35 37 39 41 42 41 36 34 35 40
9 9 9 9 8 8 8 7 7 7 6 6 6 7 8 10 12 15 20 24 28 32 36 38 42 46 50 51 52 52 52 50 49 50 52 53 54 53 53 52 52 52 51 51 52 52 52 51 50 49 49 50 51 52 55 58 59 58 57 66 79 90 96 99 100 100 100 100 99 98 98 98 95 91 85 80 78 75 66 67 71 75 78 77 73 70 72 77 77 73 65 57 49 44 42 39 38 39 40 40 37 34 32
9 9 9 9 8 8 8 7 7 6 6 6 6 7 9 11 14 18 23 27 31 35 40 43 45 48 53 54 54 54 54 52 52 54 56 58 58 57 55 54 52 51 51 51 51 51 50 49 49 49 50 51 53 53 54 56 57 56 54 59 72 86 96 98 99 100 100 100 99 99 99 98 96 92 88 87 83 76 67 76 86 93 95 94 91 89 90 94 95 94 91 84 76 67 61 54 46 40 37 37 38 37 34
9 9 9 9 8 8 7 7 7 6 6 6 7 8 10 13 16 21 26 31 35 39 43 46 49 51 55 57 56 55 55 54 56 58 59 60 59 58 55 52 51 50 51 50 49 48 48 48 49 50 52 54 55 55 55 56 56 54 51 52 63 79 92 95 98 99 100 100 100 99 99 98 96 95 96 96 95 92 87 91 96 98 99 99 98 97 97 99 99 99 98 93 87 81 77 72 64 55 43 37 35 36 37
9 9 9 8 8 7 7 7 6 6 6 6 7 9 11 14 19 24 29 34 38 42 45 49 52 54 56 58 57 56 56 57 59 60 61 60 58 56 53 51 50 50 51 50 49 48 48 49 50 52 54 56 56 56 55 55 55 53 50 49 56 68 82 90 96 99 100 100 100 100 100 98 97 96 98 99 99 99 98 99 99 99 99 99 100 99 99 99 99 98 96 90 84 81 80 78 75 70 60 49 41 36 35
9 9 9 8 8 7 7 7 6 6 6 7 8 10 13 16 21 26 32 37 41 44 47 51 55 57 59 59 58 57 57 59 60 60 60 58 57 55 52 50 50 51 51 50 50 50 50 51 52 54 57 58 57 57 56 55 54 54 51 49 51 57 68 81 92 98 100 100 100 100 100 97 96 97 99 100 100 100 99 99 99 100 99 99 100 99 99 97 95 93 94 94 93 90 84 77 76 75 70 63 56 48 40
9 9 9 8 8 7 7 6 6 6 6 7 9 12 15 18 23 28 33 38 43 46 48 52 56 59 61 60 59 58 59 60 60 60 59 58 56 54 53 51 51 50 51 51 51 52 53 53 55 58 60 59 58 57 56 55 55 55 53 50 48 49 54 65 77 87 94 95 97 98 100 99 97 96 98 99 99 99 100 100 99 99 99 100 99 98 97 92 91 92 96 98 98 97 93 82 74 70 67 67 68 66 58
9 9 9 8 7 7 7 6 6 6 7 8 10 13 16 20 25 30 34 39 43 47 50 53 57 61 62 60 59 59 61 61 60 59 59 57 56 55 54 52 51 51 52 54 55 56 57 58 59 61 63 60 59 57 57 56 56 56 55 52 48 46 46 51 59 68 77 83 88 93 97 98 97 96 96 98 99 100 99 99 99 99 99 99 98 95 90 89 92 97 99 99 99 98 96 89 81 74 69 65 68 73 76
9 9 8 8 7 7 7 6 6 6 7 8 11 14 18 22 27 32 36 41 45 50 54 57 61 64 64 60 59 60 63 63 62 60 59 58 57 56 55 53 52 52 55 57 59 61 62 62 63 65 65 62 60 58 58 58 57 57 56 55 52 49 47 48 52 57 63 69 78 87 98 93 88 87 92 97 99 99 97 97 98 99 99 99 94 87 78 88 94 98 99 99 99 98 98 95 94 92 88 80 73 71 78
9 9 8 8 7 7 6 6 6 6 7 9 11 15 19 24 29 33 38 43 49 54 59 62 65 67 66 61 60 61 64 66 65 62 60 59 58 57 55 53 53 55 58 61 63 65 66 65 66 66 65 63 61 59 59 59 58 58 58 58 57 56 54 54 55 55 56 57 63 71 79 74 68 67 76 89 95 95 91 89 90 93 97 99 92 83 75 89 96 99 99 99 99 99 100 99 98 99 99 96 90 83 78
9 9 9 8 7 7 7 6 6 7 8 9 12 16 21 25 30 35 41 47 53 59 63 66 68 69 68 63 61 62 65 68 67 64 61 60 59 58 56 55 56 58 60 63 65 66 66 66 66 65 65 63 61 60 60 60 60 60 60 60 61 62 62 62 61 60 57 55 57 60 61 59 58 57 58 70 79 84 84 82 81 82 88 94 89 81 78 91 97 99 99 99 99 99 100 99 99 98 98 99 98 96 93
10 9 9 8 8 7 7 6 6 7 8 10 13 17 22 27 32 38 45 51 55 60 65 68 69 68 66 63 61 62 66 68 68 65 63 62 61 60 58 58 59 60 61 63 64 65 64 63 63 63 62 61 61 60 61 61 62 62 62 63 64 65 66 66 66 65 64 62 62 61 62 63 63 61 58 59 64 71 78 78 75 75 81 89 86 81 80 93 98 99 99 99 99 99 99 99 99 99 99 99 99 99 100
10 9 9 9 8 8 7 7 7 7 8 11 14 18 24 29 35 42 49 54 58 60 64 67 68 67 65 62 61 63 67 68 67 65 65 65 63 61 60 60 61 61 61 61 62 62 61 60 60 60 60 60 60 61 62 63 64 64 65 66 67 67 68 69 70 70 70 69 69 68 69 69 68 66 63 60 59 59 61 63 62 63 69 78 81 81 85 94 98 99 99 99 99 99 98 98 98 98 99 99 99 99 99
10 10 10 9 9 9 8 7 7 7 9 12 16 20 26 32 39 46 53 58 60 61 63 65 67 67 67 64 64 66 70 70 68 66 66 66 64 62 61 62 61 60 60 60 59 58 57 56 56 57 58 58 60 61 64 65 66 66 67 68 69 69 70 72 73 73 73 72 72 72 72 71 71 69 68 65 62 58 55 51 50 50 53 61 69 78 89 96 98 99 98 99 98 97 93 94 96 97 99 99 99 99 99
10 10 10 10 10 10 9 8 7 8 9 13 18 24 29 35 42 49 56 60 62 63 64 63 65 67 69 68 68 70 75 74 70 67 68 67 64 62 62 62 61 60 58 57 56 55 53 52 53 54 55 57 59 61 63 64 65 66 67 68 70 71 72 73 73 73 72 72 72 71 71 71 71 71 71 70 68 65 61 56 51 47 44 48 58 72 87 94 97 98 97 98 97 94 88 88 90 93 96 97 98 98 99
11 11 11 10 10 10 10 8 8 8 10 15 20 26 33 38 45 52 58 61 64 65 65 62 61 63 68 68 69 72 77 76 72 69 69 66 63 61 62 62 60 58 56 55 53 51 49 49 49 51 52 55 58 60 61 62 63 64 66 68 69 70 70 71 71 71 70 70 70 70 70 71 71 72 72 72 72 71 69 64 58 51 45 46 54 65 77 86 91 92 92 95 93 88 82 80 81 84 88 92 93 95 97
11 11 11 11 11 11 10 9 9 9 11 16 22 29 36 42 48 53 59 61 64 66 67 63 59 58 63 67 69 71 77 77 74 70 68 64 61 60 62 62 59 57 54 52 50 48 46 45 46 47 50 53 55 57 58 59 61 63 64 65 66 67 68 68 68 68 67 66 66 66 66 67 68 69 70 71 73 73 74 72 68 62 55 51 51 55 62 68 73 77 81 85 83 79 74 72 71 73 79 86 91 94 97
11 11 12 12 11 11 10 10 9 10 12 17 23 30 38 45 51 55 59 60 62 64 67 67 62 57 58 63 67 69 74 76 74 70 66 61 59 59 62 61 58 54 51 49 46 44 42 41 42 43 47 50 51 53 55 57 59 60 62 62 63 64 64 64 64 63 61 60 59 58 59 60 61 62 64 66 68 70 73 75 75 73 69 63 59 55 54 56 59 64 72 77 80 81 79 75 71 71 76 87 93 96 96
12 12 12 12 12 11 10 10 10 10 13 18 24 31 39 47 52 56 59 59 60 62 67 68 65 60 56 60 64 68 70 72 71 68 62 58 56 57 60 59 55 50 47 45 42 40 38 37 37 39 42 44 46 48 50 52 54 55 56 57 58 58 58 57 56 54 51 50 49 48 48 49 51 53 55 57 60 62 66 69 72 75 76 75 73 70 68 66 66 68 73 78 84 90 92 87 82 80 82 92 96 97 96
12 12 12 12 12 11 10 10 10 11 13 18 24 32 40 47 53 57 61 60 59 60 64 67 66 62 57 59 63 67 69 69 68 65 59 55 54 56 58 55 51 46 43 40 38 35 34 33 33 34 35 37 40 42 44 45 46 47 49 50 50 50 49 47 45 43 40 39 37 37 37 38 39 41 43 45 48 51 54 58 62 65 69 72 75 77 77 76 76 77 79 82 87 93 98 96 93 90 88 94 97 98 98
12 13 13 12 12 11 10 10 10 11 13 18 23 30 39 46 52 58 62 62 60 59 60 64 65 64 61 60 63 67 69 68 65 62 55 52 53 54 54 51 47 42 39 36 34 32 31 29 29 29 30 32 33 35 36 37 37 38 40 40 40 39 38 36 34 32 30 29 27 27 27 28 29 30 32 34 36 38 41 43 47 50 53 56 59 61 63 64 66 70 76 82 86 91 97 98 98 96 93 95 96 98 99
13 13 13 13 12 11 10 10 10 11 13 16 20 26 34 43 51 57 61 64 64 61 57 61 63 65 64 64 65 67 69 67 64 58 51 50 51 52 51 48 44 39 36 33 31 29 28 26 26 26 26 27 28 29 29 29 29 29 30 30 30 29 28 26 25 24 23 22 21 20 20 21 22 23 24 25 26 27 29 30 32 34 36 36 37 38 39 41 44 51 60 71 79 85 91 97 99 98 94 93 93 95 97
13 13 13 13 12 11 10 10 11 11 12 13 16 21 30 38 46 54 59 62 64 63 59 58 58 59 61 65 67 68 69 67 60 52 47 48 49 49 48 46 42 38 34 32 30 28 26 25 24 23 24 24 24 24 24 24 23 23 23 23 22 22 22 21 20 20 19 18 18 18 18 18 18 18 19 19 20 20 20 21 21 22 23 23 22 22 22 23 27 33 43 54 62 69 74 83 88 89 88 87 87 88 90
14 14 14 13 12 11 11 11 11 11 11 11 14 19 25 32 42 51 57 60 62 63 64 58 52 49 51 59 65 68 68 64 55 46 41 44 47 48 47 45 43 40 36 34 31 28 26 24 23 23 22 22 22 22 22 21 21 20 20 20 19 19 19 19 19 18 18 18 18 17 17 17 17 17 17 17 16 16 16 16 16 16 16 16 15 15 15 16 18 23 29 36 42 46 49 56 62 66 70 73 76 79 81
14 14 14 13 12 11 11 11 11 11 10 11 14 17 21 28 38 48 56 59 61 63 67 61 50 41 39 50 59 63 63 58 49 41 35 37 41 45 47 45 44 42 40 37 33 29 26 24 23 22 22 22 22 22 21 21 20 20 20 19 19 19 19 18 18 18 18 17 17 16 16 16 16 16 15 15 15 14 14 14 14 14 14 13 13 13 13 13 14 17 19 23 25 26 28 31 35 40 45 51 56 61 65
14 14 14 13 12 12 11 11 11 11 10 12 15 19 23 28 35 43 51 56 58 59 58 55 48 38 30 38 49 56 54 50 44 37 32 30 33 38 45 45 45 44 43 39 35 30 26 24 23 22 21 21 21 21 21 21 21 20 20 20 19 18 18 17 17 16 16 15 15 14 14 13 13 13 13 12 12 12 12 12 11 11 11 11 11 11 11 12 12 12 13 15 15 15 16 18 20 22 25 29 34 38 43
15 15 14 13 13 12 12 12 11 11 10 12 15 18 21 24 29 36 43 48 50 50 45 42 39 34 29 30 37 43 44 42 38 33 29 27 28 30 35 40 43 44 43 40 35 31 26 23 22 21 20 20 21 21 21 21 21 20 19 19 18 17 16 15 14 14 13 13 12 11 11 10 10 10 10 9 9 9 9 9 9 9 8 9 9 9 9 9 9 9 10 10 10 11 11 12 12 13 14 16 18 21 25
15 15 15 14 13 12 12 12 12 12 11 11 12 14 16 18 23 28 34 38 41 42 37 30 27 27 27 27 29 32 35 35 33 30 27 25 26 28 29 32 38 43 44 40 36 31 26 22 20 19 19 19 19 20 20 20 20 19 18 17 16 14 13 13 12 11 11 10 10 9 9 9 8 8 8 8 7 7 7 7 6 6 6 6 6 6 6 6 6 6 7 7 8 8 9 9 9 9 10 10 10 11 13
16 16 15 14 13 13 13 13 13 12 12 11 11 12 13 16 20 24 27 31 35 36 35 25 19 19 23 25 26 28 30 30 29 27 25 22 24 27 29 32 39 44 42 41 38 34 27 22 19 18 17 17 18 18 18 18 18 17 15 14 13 12 11 11 10 10 10 9 9 9 8 8 8 8 8 8 8 7 7 7 7 6 6 6 5 5 5 5 5 5 5 5 5 6 6 6 6 6 7 7 7 7 8
16 16 16 15 14 13 13 13 13 13 12 11 11 11 12 14 17 20 22 26 29 31 32 25 18 15 17 20 23 25 26 26 26 25 24 20 21 24 29 31 34 36 35 37 39 38 34 25 19 16 15 15 15 15 16 16 15 14 13 12 11 11 10 10 10 9 9 9 9 9 9 9 9 9 9 9 8 8 8 8 8 7 7 7 6 6 6 5 5 5 5 4 4 4 4 4 4 4 4 4 5 5 5
17 17 17 16 15 14 14 14 14 14 13 12 11 11 11 12 14 16 17 20 23 25 26 23 19 16 13 16 18 20 22 22 23 22 21 18 17 19 24 25 27 29 31 30 34 39 38 27 21 17 15 14 13 13 13 13 13 12 11 11 10 10 10 10 10 9 10 10 10 10 10 10 10 10 9 9 9 9 9 9 9 9 8 8 8 7 7 7 6 6 6 5 5 5 4 4 4 4 4 3 3 3 4
17 18 17 17 16 15 15 15 15 15 14 13 12 12 11 11 12 12 13 15 17 20 23 21 19 17 14 13 14 15 17 18 19 19 18 16 14 14 16 19 21 23 23 26 31 35 32 25 21 19 18 15 12 11 11 11 11 11 10 10 10 10 10 10 10 10 10 10 10 10 10 10 10 10 10 10 10 10 10 10 10 10 9 9 9 8 8 8 8 7 7 7 7 6 6 5 5 5 4 4 4 4 3
18 18 18 17 17 16 16 16 16 15 15 14 13 13 12 12 12 12 12 13 15 17 19 19 19 18 17 14 13 13 14 15 16 16 15 14 13 13 13 13 13 13 14 19 24 27 26 21 22 25 22 16 12 11 10 10 10 10 10 10 10 10 10 10 10 11 11 11 11 11 11 11 11 12 11 11 11 11 11 11 11 11 11 10 10 10 9 9 9 9 8 8 8 8 7 7 7 6 6 6 5 5 5
18 19 19 18 17 17 17 16 16 16 16 15 14 14 13 13 12 12 12 13 13 14 17 18 18 18 18 16 14 13 12 13 13 13 13 12 12 12 12 12 11 10 10 12 14 15 18 18 20 21 20 18 14 12 11 10 10 10 10 10 10 10 10 10 11 11 11 12 12 12 12 13 13 13 13 13 13 13 13 13 13 13 12 12 12 11 11 11 10 10 10 9 9 9 9 8 8 8 7 7 7 6 6
19 19 19 19 18 18 18 18 17 17 16 16 15 14 14 13 13 13 12 12 12 13 14 15 16 17 17 17 15 14 12 11 11 11 12 12 11 11 11 11 11 10 10 11 12 12 13 15 16 15 14 19 18 15 12 10 10 10 10 10 10 10 10 10 11 11 11 12 12 13 13 14 14 14 14 15 15 15 15 15 15 15 14 14 13 13 13 12 12 11 11 11 10 10 10 10 9 9 9 8 8 8 7
19 20 20 19 19 19 19 18 18 17 17 16 16 15 14 14 13 13 13 12 12 12 12 13 14 15 16 16 15 14 12 12 11 11 11 11 11 11 11 10 10 10 10 12 13 13 12 12 12 12 11 14 16 17 14 12 11 10 10 10 10 10 10 10 11 11 12 12 13 13 14 14 15 15 16 16 16 17 17 17 17 17 17 16 15 15 14 14 13 13 12 12 12 11 11 10 10 10 10 9 9 9 8
20 20 20 20 20 20 20 19 18 18 18 17 17 16 15 14 14 13 13 13 13 12 12 12 13 13 14 14 14 13 12 12 11 11 10 10 10 10 10 10 10 10 11 12 13 13 13 12 11 10 10 10 11 13 14 13 12 11 11 11 11 11 10 11 11 11 12 13 13 14 14 15 15 16 16 17 17 18 18 18 19 19 19 18 18 17 16 16 15 14 14 13 13 12 12 11 11 11 10 10 10 10 9
Wind_Speed
2 2 2 2 2 2 2 2 2 3 3 3 3 2 2 2 2 2 3 3 3 3 3 3 3 3 3 4 4 4 3 3 3 2 2 1 1 1 2 2 2 2 2 2 2 2 2 3 3 4 4 5 5 5 6 6 6 5 5 4 2 2 3 5 7 8 10 10 11 12 13 14 13 12 11 9 8 9 9 9 7 6 7 7 7 8 9 8 6 3 2 4 6 6 4 5 7 8 8 6 2 5 8
2 2 2 2 2 2 2 2 2 2 2 2 2 2 2 2 2 2 2 2 3 3 3 2 2 3 3 3 3 3 3 3 2 2 1 1 1 2 3 3 3 3 3 2 2 2 2 2 3 3 4 4 5 5 6 6 6 6 5 5 4 2 2 4 6 7 8 10 11 11 12 13 13 13 13 12 11 10 10 10 9 7 5 4 4 6 8 8 7 5 5 4 4 5 5 5 6 6 7 7 3 3 7
2 2 2 2 2 2 2 2 2 2 2 2 2 1 1 1 2 2 2 2 2 2 2 2 2 2 2 3 3 3 3 2 2 1 1 1 2 3 4 4 4 4 3 3 2 2 1 2 2 3 4 4 5 5 6 6 5 5 5 5 4 3 3 3 4 6 7 8 10 11 11 11 11 12 13 14 14 13 12 11 11 9 7 6 4 5 7 7 6 6 6 6 4 3 4 4 4 5 6 7 4 1 6
3 3 2 2 2 2 2 2 2 2 2 2 1 1 1 1 1 2 2 2 2 2 2 2 2 2 2 3 3 3 3 2 1 1 2 2 3 4 4 4 4 4 3 3 2 1 1 1 1 2 3 4 4 5 5 5 5 5 4 4 4 4 4 3 3 4 5 7 8 9 10 10 11 11 12 14 14 14 13 13 12 12 11 10 8 7 7 6 6 5 5 7 6 3 3 3 2 3 5 6 5 1 5
3 3 3 2 2 2 2 2 2 2 2 1 1 1 1 1 2 2 2 2 2 1 2 2 2 2 2 3 3 3 3 2 1 2 2 3 4 4 4 4 4 4 3 3 2 1 0 0 1 1 2 3 4 4 5 5 5 5 4 4 5 5 5 4 3 4 4 5 6 7 8 9 10 11 11 11 13 13 14 14 13 13 14 14 13 11 8 6 5 5 4 3 5 4 1 2 2 2 3 5 6 4 3
3 3 3 3 3 3 2 2 2 2 2 2 2 2 2 2 2 2 2 2 2 2 2 3 3 3 3 3 3 3 3 2 2 3 3 4 4 4 4 4 4 4 3 2 2 1 1 1 1 1 1 2 2 3 4 4 5 4 4 4 5 5 5 4 3 3 4 5 5 6 7 8 9 9 9 10 11 12 13 14 14 14 14 15 15 14 11 9 7 6 6 3 1 3 3 1 1 2 3 4 5 5 2
3 3 3 3 3 3 3 3 2 2 2 2 2 2 2 2 3 3 3 3 2 2 3 4 4 3 3 4 3 3 3 3 3 3 4 4 4 4 4 4 3 3 3 2 2 1 1 1 1 1 1 1 2 2 3 4 4 4 4 4 5 5 5 4 4 4 4 4 5 5 6 7 7 8 8 9 9 10 11 12 13 14 14 14 15 15 14 11 9 8 8 6 3 2 1 2 2 0 3 4 5 6 5
3 3 3 3 3 3 3 3 3 3 3 3 3 3 3 3 3 3 3 3 3 3 4 4 4 4 4 4 4 3 3 3 4 4 4 4 4 4 3 3 3 3 2 2 1 1 1 1 1 1 1 1 1 2 2 3 4 4 5 5 5 5 5 5 5 5 4 4 4 5 5 6 7 7 8 8 8 9 9 10 12 13 14 14 14 14 14 12 11 10 9 8 6 4 4 1 1 1 1 4 5 6 7
3 3 3 3 3 3 3 3 3 3 3 3 3 3 3 3 4 3 3 3 3 3 4 4 4 5 4 4 4 4 4 4 4 4 4 4 4 3 3 3 2 2 2 1 1 1 1 1 1 1 1 1 1 2 2 3 3 4 5 5 6 7 7 7 7 7 6 5 5 4 4 5 6 6 6 7 7 7 8 9 10 12 13 13 13 13 13 11 10 10 9 9 8 6 6 4 3 2 2 3 4 6 7
2 2 2 2 2 3 3 3 4 4 4 4 3 4 4 4 4 4 4 3 4 4 4 5 5 5 5 4 4 4 5 5 5 5 4 4 4 3 3 2 2 2 2 1 1 1 1 0 0 0 1 2 2 2 2 3 3 4 4 7 8 9 10 10 10 9 9 7 7 6 5 4 4 5 5 6 6 6 7 7 9 10 11 12 13 13 12 10 9 9 9 9 8 7 7 7 6 6 4 4 4 5 7
1 1 1 2 2 2 3 3 4 4 4 4 4 4 4 4 4 4 4 4 4 4 5 5 5 5 5 5 5 5 5 5 5 5 4 4 3 3 3 2 2 2 2 1 1 1 1 0 1 1 2 2 2 2 2 3 3 4 5 9 11 11 11 11 11 11 11 10 9 8 6 5 4 4 4 5 5 5 5 6 7 8 10 11 12 13 12 10 9 9 9 8 8 7 7 6 7 7 6 4 3 4 7
0 1 1 1 2 2 3 4 4 4 4 4 4 4 4 4 4 4 4 4 5 5 5 5 5 5 5 5 6 6 6 6 5 5 4 4 3 3 3 3 2 2 2 2 1 1 1 1 1 2 2 2 2 3 3 3 3 4 7 10 11 11 11 11 11 11 11 11 10 9 8 7 5 4 3 3 4 4 4 4 5 7 8 10 11 12 12 11 11 10 10 9 8 8 7 5 5 6 6 4 3 4 7
0 1 1 1 2 3 3 4 4 4 4 5 5 5 4 4 4 5 5 5 5 5 5 6 6 6 6 6 6 7 6 6 5 5 4 4 4 3 3 3 3 2 2 2 2 2 2 2 2 2 3 3 3 3 3 3 4 5 9 10 10 10 9 9 10 10 10 11 11 11 10 9 7 6 4 4 3 3 2 3 3 3 6 8 10 12 12 13 12 12 11 10 9 9 9 7 4 4 4 3 2 3 6
1 1 1 2 2 3 4 4 4 5 5 5 5 5 4 4 5 5 5 5 5 5 5 5 6 6 7 7 7 7 6 6 5 5 4 4 4 4 3 3 3 3 3 3 3 3 3 3 3 3 3 3 3 3 4 4 4 6 10 10 9 8 8 9 9 9 10 10 11 11 12 11 10 8 7 5 4 3 2 3 4 3 2 5 8 10 11 12 13 13 13 12 11 11 11 10 6 3 3 3 3 2 3
2 2 2 2 3 3 4 4 5 5 5 5 5 5 4 4 5 5 5 5 5 5 5 5 6 7 7 7 7 7 7 6 5 5 5 4 4 4 4 4 4 4 4 4 4 4 4 4 4 4 4 4 4 4 4 4 4 7 10 10 9 9 9 9 9 10 10 10 11 11 12 12 12 11 9 7 5 4 3 3 3 3 3 1 3 6 9 11 12 13 14 13 12 12 13 13 9 4 4 4 5 3 2
2 2 2 3 3 4 4 5 5 5 5 5 5 5 4 4 4 5 5 5 5 5 5 6 6 7 7 7 7 7 7 6 6 5 5 5 5 5 5 5 5 5 5 5 5 5 5 5 4 5 5 5 5 5 5 4 5 8 10 10 10 10 10 10 11 11 11 12 12 12 12 12 12 12 11 9 7 5 4 3 2 1 1 1 2 3 6 8 10 12 13 13 13 13 14 15 12 7 5 6 7 5 2
2 2 3 3 4 4 5 5 5 5 5 5 5 4 4 4 4 4 4 4 4 4 5 6 7 7 7 7 7 7 7 6 6 5 5 5 5 5 6 6 6 6 6 6 5 5 5 5 5 5 6 6 6 6 6 6 7 9 10 10 10 10 10 11 12 12 13 14 14 13 13 12 12 12 12 11 9 7 5 4 3 3 2 3 3 3 4 6 8 10 12 12 13 14 15 17 15 12 8 8 8 6 2
3 3 3 4 4 5 5 5 5 5 5 5 5 4 4 4 4 4 4 4 4 5 6 6 7 7 7 7 7 7 6 6 6 6 6 6 6 6 6 7 7 7 7 6 6 6 6 6 6 6 6 6 7 8 9 10 11 12 11 11 11 11 11 12 12 13 13 15 15 15 14 14 13 13 13 12 10 9 7 5 5 5 4 4 4 4 4 5 7 8 10 11 12 13 15 17 17 15 13 11 8 6 5
3 3 3 4 4 5 5 5 5 5 5 5 5 4 4 4 4 4 4 4 4 5 6 6 7 7 7 7 7 6 6 6 6 6 6 6 7 7 7 7 8 7 7 7 7 7 7 7 7 6 6 6 8 11 14 15 15 15 14 13 13 13 13 14 14 14 15 16 16 17 17 16 15 14 14 13 12 11 9 8 7 6 6 5 5 4 3 4 5 7 8 9 10 12 14 16 18 18 17 15 10 6 7
3 3 4 4 5 5 5 5 5 5 5 5 5 4 4 4 4 4 4 4 5 5 6 6 6 7 7 7 7 6 6 6 6 6 6 7 7 8 8 8 8 8 8 8 8 8 8 8 8 8 7 7 9 13 16 17 16 15 15 15 16 18 19 19 19 19 19 18 18 19 19 19 17 16 15 15 14 13 12 11 9 8 7 6 6 5 4 4 4 5 6 7 9 10 12 15 17 19 20 19 15 10 9
3 4 4 4 5 5 5 5 5 5 5 5 5 4 4 4 4 4 4 4 5 5 6 6 6 6 7 7 7 7 6 6 6 6 7 7 8 8 8 8 8 8 8 9 9 9 9 9 9 9 10 10 11 13 16 16 16 15 14 16 19 22 23 23 22 21 20 19 19 20 21 21 19 17 16 16 16 15 14 14 12 11 9 8 8 7 6 5 5 5 5 6 7 8 10 12 16 19 20 21 20 16 12
3 4 4 4 5 5 5 5 5 5 5 5 5 4 4 4 4 3 3 4 4 5 6 6 6 6 7 7 7 7 6 6 6 7 7 8 8 8 8 8 8 8 9 9 9 9 9 10 10 11 11 12 12 13 15 16 16 16 16 18 19 20 20 21 21 19 18 17 17 19 20 21 20 19 18 17 17 16 15 15 14 13 12 12 11 10 9 9 8 7 6 6 6 6 7 10 13 17 20 21 22 20 17
3 4 4 4 5 5 5 5 5 5 5 5 4 4 4 4 4 3 3 3 4 5 5 6 6 6 7 7 7 7 6 6 6 7 8 8 8 8 8 8 8 8 9 9 9 9 10 10 10 11 12 13 13 14 14 15 15 15 17 19 19 18 17 17 17 16 14 14 15 17 19 20 20 19 18 17 16 16 15 15 15 15 15 15 15 15 14 13 12 11 10 8 7 6 5 6 9 13 17 20 21 21 21
4 4 4 4 5 5 5 5 5 5 5 4 4 4 4 3 3 3 3 3 4 4 5 6 6 6 6 7 7 7 6 6 6 7 7 7 7 7 7 8 8 8 9 9 9 10 10 10 11 11 12 13 14 14 14 13 13 14 17 20 21 19 17 17 17 16 12 11 13 17 19 19 19 19 18 17 16 16 16 16 16 17 19 19 19 19 18 17 16 15 13 12 10 8 6 5 5 8 12 16 19 21 21
4 4 4 4 4 5 5 5 5 5 4 4 4 4 4 3 3 3 3 4 4 5 5 6 6 6 6 7 7 6 6 6 6 7 7 7 7 7 7 8 8 8 8 9 9 9 10 11 11 12 12 13 13 13 13 13 12 13 16 19 21 21 20 21 22 19 14 11 13 16 17 18 18 18 18 17 17 18 18 19 20 22 23 24 23 22 22 21 20 19 17 15 14 12 10 8 6 4 6 10 14 17 20
3 4 4 4 4 4 4 4 4 4 4 4 4 4 4 3 3 4 4 4 5 5 5 6 6 7 6 6 6 6 6 6 6 7 7 7 6 7 7 8 8 8 8 8 9 9 10 11 11 12 12 12 12 12 13 13 13 14 16 18 21 22 23 25 25 22 15 13 14 16 16 17 18 19 19 19 20 21 22 24 25 26 26 26 26 25 23 23 22 21 20 18 17 15 14 12 10 7 5 5 8 12 16
3 3 4 4 4 4 4 4 4 4 4 4 4 4 4 4 4 4 4 5 5 5 6 6 6 7 7 6 6 6 6 6 6 7 7 7 6 6 7 7 7 8 8 8 9 9 10 11 11 12 12 12 12 12 13 13 13 14 15 17 20 23 25 27 27 24 18 17 16 16 15 17 18 20 21 22 23 24 25 25 25 25 24 25 25 25 23 22 22 21 20 19 18 17 16 15 13 11 8 6 5 6 10
3 3 3 3 3 4 3 3 3 3 3 3 3 4 4 4 4 4 5 5 6 6 6 6 6 7 6 6 5 5 6 6 6 6 6 7 6 6 6 7 7 7 7 8 9 9 10 11 11 12 12 12 12 13 13 14 14 13 14 15 18 22 24 27 28 27 23 21 20 18 17 18 20 21 22 22 22 23 23 23 22 21 20 21 22 22 22 21 21 20 20 20 19 19 18 17 15 13 11 9 6 5 5
2 3 3 3 3 3 3 3 3 3 3 3 3 4 4 5 5 5 5 6 6 6 6 6 6 6 6 6 5 5 6 6 6 6 6 6 6 6 6 6 6 6 7 8 9 10 10 11 11 12 12 12 13 13 14 14 14 14 14 14 16 20 23 25 27 27 26 23 21 20 18 19 20 21 21 21 21 21 20 18 17 18 19 21 21 21 20 22 22 22 21 21 21 20 19 17 16 15 13 11 9 7 5
2 2 2 2 3 3 3 3 3 3 3 3 4 5 5 5 6 6 6 6 7 7 7 6 6 6 6 5 5 6 6 6 6 6 6 6 6 6 5 5 5 5 6 7 9 10 11 11 11 12 12 13 13 14 14 14 15 15 14 14 15 18 20 22 23 25 24 23 21 20 19 18 18 18 17 19 21 21 19 16 15 17 21 23 24 23 21 23 24 24 23 23 22 20 19 17 16 16 15 14 12 10 8
1 2 2 2 2 2 2 2 2 3 3 4 4 5 6 6 6 7 7 7 7 7 7 7 7 6 6 5 6 6 6 6 5 5 5 4 4 4 4 4 4 5 6 7 9 10 11 11 11 12 12 13 13 14 14 14 15 15 15 15 15 15 16 17 18 19 19 19 18 18 18 17 15 13 13 16 19 19 17 15 15 17 20 23 24 23 21 22 24 25 25 24 21 19 19 18 17 17 17 16 15 13 12
1 1 1 1 2 2 2 2 2 3 3 4 5 6 6 7 7 7 7 7 8 8 7 7 7 6 6 6 6 6 6 6 5 5 4 4 3 3 4 4 4 5 6 8 9 11 11 11 12 12 13 13 13 13 13 14 14 15 15 15 14 13 13 12 12 12 13 13 14 16 18 16 14 12 11 13 15 16 15 14 15 16 17 19 20 19 19 22 24 26 28 26 23 20 21 21 21 20 19 18 16 15 14
1 1 1 1 2 2 2 2 2 3 4 5 5 6 7 8 8 8 8 8 8 8 8 7 7 6 6 5 6 6 6 6 5 4 4 4 4 4 4 5 5 6 8 9 11 12 12 12 12 12 13 13 13 13 13 13 14 14 15 15 14 13 12 11 11 10 10 11 12 14 15 15 14 12 11 11 12 12 12 13 13 13 14 16 16 16 18 21 25 28 29 27 25 25 24 25 25 24 23 22 20 17 15
1 1 2 2 2 2 2 2 3 3 4 5 6 7 7 8 8 8 9 9 9 9 8 8 8 7 6 5 5 6 7 6 5 5 5 5 5 6 6 6 7 8 9 11 12 13 13 12 12 13 13 13 12 13 13 13 13 13 14 14 14 13 13 13 13 13 12 11 11 12 12 13 13 12 11 10 10 10 9 10 10 11 12 14 15 16 18 20 25 28 27 25 26 27 26 26 26 26 26 24 23 21 18
2 2 2 2 2 2 2 3 3 4 4 5 6 7 8 8 9 9 9 9 9 9 9 9 8 7 6 5 5 6 7 7 6 5 6 6 7 7 7 8 8 9 10 12 13 13 13 12 13 13 13 13 12 12 12 13 13 13 13 13 14 14 13 14 14 14 14 13 12 12 12 14 15 14 12 10 9 8 8 8 9 10 11 12 14 15 16 19 24 27 25 23 25 27 26 26 27 28 29 27 24 22 21
3 3 3 3 2 2 3 3 4 5 5 6 7 7 8 8 9 9 10 10 10 10 10 9 8 7 6 5 6 7 7 7 7 6 6 8 8 9 9 9 9 10 11 12 13 13 12 13 13 13 13 13 13 12 12 12 13 13 13 13 13 13 13 14 14 14 15 15 14 14 15 16 17 17 16 13 11 10 9 9 9 10 11 12 12 13 14 17 22 24 22 21 22 24 24 24 26 29 30 29 27 25 23
3 3 3 3 3 3 3 4 5 5 6 6 7 7 8 9 9 10 10 10 10 10 10 10 9 7 6 5 6 7 8 7 7 7 7 8 9 10 10 9 9 10 11 12 13 12 12 13 13 14 14 13 13 13 13 13 13 13 13 13 13 13 13 14 14 14 15 15 15 16 17 18 19 19 18 17 15 13 12 11 11 11 11 11 12 12 14 17 19 19 18 18 20 21 21 21 23 26 28 29 30 28 26
4 4 4 3 3 3 4 4 5 6 6 7 7 8 8 9 9 10 10 10 10 9 9 9 9 8 7 6 7 8 8 8 7 7 8 9 9 10 10 10 9 10 11 12 12 12 13 13 14 14 14 14 14 13 13 13 13 13 13 13 13 13 13 14 14 15 15 15 16 17 18 18 19 19 19 19 18 17 15 14 13 13 13 13 13 13 14 16 17 16 14 16 17 17 17 18 19 22 25 27 28 29 28
4 4 4 4 4 4 4 5 6 6 7 7 8 8 8 9 9 10 10 10 10 9 9 9 9 8 8 7 8 9 9 8 7 8 8 9 10 10 10 10 10 10 11 12 12 12 13 14 14 15 15 15 14 14 14 13 13 13 13 14 14 14 14 15 15 15 16 16 17 18 19 19 20 20 20 20 20 20 19 17 16 15 15 14 14 14 14 15 14 13 12 15 16 14 13 13 14 16 19 22 24 25 25
5 4 4 4 4 4 5 6 6 7 7 7 8 8 9 9 10 10 10 10 10 9 9 8 8 9 9 8 9 10 10 8 8 8 9 9 10 11 11 10 10 11 11 12 12 13 14 14 15 15 15 15 15 15 15 14 14 14 14 15 15 15 15 16 16 16 17 18 19 19 20 21 21 21 22 22 22 21 21 20 19 17 15 14 14 14 13 13 13 11 12 15 15 14 12 10 9 11 13 16 18 19 20
5 5 5 4 4 5 6 6 7 7 7 8 8 9 9 10 10 10 11 11 11 11 9 8 7 8 9 9 9 10 10 9 9 9 9 10 10 11 11 10 11 11 11 12 12 13 14 15 16 16 16 16 16 16 16 16 16 16 16 16 16 17 17 18 18 19 19 20 20 21 21 22 22 22 22 22 22 22 22 22 21 19 17 15 13 12 12 12 12 11 12 15 15 15 15 12 10 9 10 13 15 17 18
6 5 5 5 5 5 6 7 7 8 8 8 8 9 10 10 10 10 10 11 11 12 11 8 6 6 7 9 9 10 11 11 10 10 10 11 11 12 12 11 11 11 11 12 13 14 15 16 16 17 17 16 16 16 17 17 17 17 18 18 18 19 19 19 20 20 21 21 21 22 22 22 22 22 23 23 23 23 23 22 22 21 19 17 14 12 11 12 12 12 13 15 16 17 18 16 13 11 11 13 15 16 16
6 6 5 5 5 6 7 8 8 8 8 8 9 9 10 11 11 11 10 11 11 12 12 10 8 6 6 7 9 10 10 11 11 10 10 11 12 13 12 12 12 12 12 12 14 15 16 16 17 17 17 16 16 17 18 18 18 19 19 20 20 20 20 21 21 21 22 22 22 22 22 22 22 23 23 23 23 23 23 22 22 21 21 19 18 16 14 14 14 14 14 16 18 19 20 19 17 15 14 14 15 15 15
7 6 6 5 6 6 7 8 9 9 8 9 9 10 11 11 12 12 11 11 11 12 12 11 9 7 6 7 8 9 10 12 12 12 11 12 13 14 13 13 13 12 12 13 14 16 16 17 17 17 17 17 17 18 18 19 19 20 20 20 20 21 21 21 22 22 22 22 22 22 22 22 22 23 23 23 23 23 23 23 22 22 21 21 20 19 17 17 16 16 17 17 19 20 21 21 20 18 16 15 14 15 15
8 7 6 6 6 7 8 9 9 9 9 9 10 10 11 12 12 12 12 11 10 11 12 12 10 8 7 7 8 9 10 11 12 12 13 13 14 14 14 14 14 13 13 14 15 16 16 16 16 16 17 17 17 18 18 19 20 20 20 20 21 21 21 22 22 22 22 22 22 22 22 22 22 22 23 23 23 23 23 23 22 22 22 22 21 20 20 19 18 18 18 19 19 21 22 22 22 20 18 16 14 14 16
8 8 7 7 7 8 9 9 10 10 9 9 10 11 11 12 12 13 13 12 11 10 11 12 12 10 9 8 9 10 10 11 12 13 14 14 15 15 16 16 15 14 14 15 15 16 16 16 16 17 17 17 18 18 18 19 19 19 19 20 20 21 21 21 21 21 22 22 22 22 22 22 22 22 23 23 23 23 23 23 23 23 22 22 22 22 22 21 21 20 19 19 20 21 23 23 23 22 20 17 15 15 16
9 8 8 8 8 8 9 10 10 10 10 10 10 11 12 12 13 13 13 13 12 11 10 11 12 13 12 11 10 10 11 12 12 13 15 16 16 17 17 17 16 15 15 16 16 15 15 15 16 17 17 17 17 18 18 18 18 18 19 20 20 20 21 21 21 22 22 22 22 22 22 22 22 23 23 23 23 24 24 23 23 23 23 23 24 24 24 23 23 22 21 21 22 23 24 25 25 24 23 20 18 16 17
10 9 9 8 9 9 10 11 11 11 10 10 10 10 11 12 13 13 13 13 12 12 10 10 11 12 14 14 13 12 12 12 12 13 16 17 18 18 18 18 18 17 16 16 16 15 15 15 16 17 17 17 17 17 17 17 17 18 19 19 19 20 20 21 21 22 22 22 22 22 22 22 23 23 23 24 24 24 24 24 24 24 24 24 24 25 25 25 24 23 23 23 24 25 26 26 27 26 26 24 23 21 21
11 10 10 10 10 10 10 11 11 11 11 10 10 10 11 12 12 13 13 12 12 12 11 10 10 11 13 15 15 14 14 14 13 13 14 17 20 20 19 18 18 18 17 16 16 15 15 16 16 17 17 17 17 17 17 17 17 17 18 18 19 20 20 21 22 22 22 22 22 22 23 23 23 23 23 24 24 24 24 24 24 24 24 24 25 25 25 25 25 25 24 24 25 26 27 28 28 28 27 27 26 25 25
12 11 11 11 11 11 11 12 12 12 12 11 11 11 11 12 12 13 13 13 12 12 12 12 11 10 11 14 16 16 15 15 14 13 12 14 18 22 22 20 19 19 18 17 16 16 16 16 16 17 17 17 17 16 16 16 17 17 17 18 18 20 20 21 22 22 21 22 22 22 23 23 23 23 24 24 24 24 24 24 24 24 24 24 25 25 25 25 25 25 25 25 26 27 28 28 28 28 27 27 27 26 26
12 12 11 11 11 11 12 12 12 12 12 12 12 12 12 12 12 13 13 13 13 12 12 13 12 11 10 12 14 16 16 15 15 14 14 14 16 19 22 23 21 20 19 18 17 16 16 16 17 17 17 17 16 16 16 16 16 17 17 18 19 20 20 21 21 21 21 21 22 22 23 23 23 24 24 24 24 24 24 24 24 24 24 25 25 25 26 26 26 26 25 25 26 27 27 28 27 27 27 27 27 26 26
13 12 12 12 12 12 12 12 12 12 12 13 13 13 13 12 13 13 13 12 12 12 11 12 13 13 12 11 13 15 16 15 15 14 14 15 16 17 18 21 23 23 20 19 18 17 16 17 18 18 17 17 16 16 16 16 16 17 17 18 19 20 20 21 21 21 21 21 22 22 23 23 23 24 24 24 24 24 24 24 24 24 25 25 25 26 26 26 26 26 26 26 26 27 27 27 27 27 27 27 27 27 26
14 13 13 12 12 13 13 13 13 12 12 12 13 13 13 13 12 12 12 12 12 12 11 10 11 12 13 13 14 15 15 15 15 15 14 15 17 19 19 20 22 22 21 21 20 19 18 18 19 19 18 17 17 16 16 16 17 17 17 18 19 20 20 20 20 20 20 21 22 22 23 23 23 23 23 23 23 24 24 24 24 25 25 25 25 26 26 26 26 26 26 26 26 27 27 27 27 27 27 27 27 27 27
15 14 13 13 13 13 13 13 13 12 12 12 12 12 13 13 12 12 12 12 12 12 12 10 9 10 13 14 15 16 16 16 16 16 15 14 17 19 20 20 21 21 20 19 17 14 14 18 20 20 18 17 17 17 16 16 17 17 17 18 19 19 19 19 19 19 20 21 22 22 22 23 23 23 23 23 23 23 24 24 24 24 24 25 25 25 25 26 26 26 26 27 27 27 28 28 28 27 27 27 27 27 27
16 15 14 14 13 13 13 13 13 13 12 12 12 12 12 12 12 12 12 12 12 12 12 11 10 10 10 12 15 17 18 18 17 17 16 14 14 16 18 21 21 20 17 14 10 10 15 19 20 20 19 17 17 17 16 16 17 17 17 18 18 18 18 18 18 19 20 21 21 21 22 22 22 22 22 23 23 23 23 24 24 24 24 24 24 25 25 25 25 26 26 27 27 28 28 28 28 28 28 28 28 28 28
17 16 15 15 14 14 14 13 13 13 13 13 13 13 12 12 12 12 12 11 11 11 11 11 11 10 9 10 12 16 18 18 18 18 17 14 13 13 15 19 18 12 7 7 11 17 21 22 21 21 19 17 17 17 17 16 16 16 17 17 17 17 17 17 18 19 19 20 20 20 21 21 21 21 22 22 22 23 23 23 23 24 24 24 24 24 25 25 25 26 26 27 27 28 28 28 28 28 28 28 28 28 28
18 17 16 16 15 14 14 14 14 14 14 14 13 13 13 13 13 13 13 12 12 12 11 11 10 10 10 9 10 13 16 18 18 17 16 13 12 12 13 13 11 8 6 8 15 22 23 22 20 17 16 17 17 16 16 16 15 15 16 16 16 16 16 16 17 18 18 18 19 19 19 20 20 20 21 21 22 22 22 23 23 23 23 24 24 24 24 25 25 26 26 26 27 27 27 27 27 27 27 27 28 28 28
19 18 17 16 16 15 14 14 14 14 14 14 14 14 14 14 14 14 13 13 12 12 11 11 11 10 11 10 10 10 13 15 16 16 14 12 11 11 11 9 6 4 5 8 14 20 22 23 19 16 17 18 17 16 16 16 15 15 15 15 15 15 15 16 16 17 17 17 18 18 18 19 19 20 20 20 21 21 21 22 22 22 23 23 23 24 24 24 25 25 25 26 26 26 27 27 27 27 27 27 27 27 27
21 19 18 18 17 16 15 15 15 15 15 15 15 15 15 15 15 14 14 14 13 13 12 12 11 11 11 12 11 11 11 12 13 14 13 12 11 10 9 8 6 6 8 10 11 13 17 20 23 24 24 21 18 17 16 15 15 15 14 14 14 14 14 14 15 16 16 17 17 17 17 18 18 19 19 19 20 20 21 21 21 21 22 22 23 23 23 24 24 24 24 25 25 25 25 26 26 26 26 26 27 27 27
22 21 20 19 18 17 17 16 16 16 15 15 15 15 15 15 15 15 15 15 15 14 13 13 12 12 12 12 12 11 10 10 11 11 12 11 10 10 10 9 8 9 11 12 13 12 13 15 19 21 22 23 22 19 17 16 15 14 14 14 13 13 13 13 14 15 15 16 16 16 17 17 17 17 18 18 19 19 20 20 20 21 21 21 22 22 22 23 23 23 23 24 24 24 24 25 25 25 25 26 26 26 26
23 22 21 20 19 19 18 18 17 17 16 16 16 15 15 15 15 16 16 16 16 16 15 14 14 13 13 13 12 11 10 10 11 11 11 11 11 12 12 12 12 13 13 13 13 13 13 14 15 16 18 21 22 21 19 17 15 14 14 13 12 12 12 13 13 14 14 15 15 15 16 16 16 17 17 18 18 19 19 19 20 20 20 21 21 21 21 22 22 22 23 23 23 23 23 23 24 24 24 25 25 25 26
Wind_Direction
356 356 355 355 355 353 350 345 335 326 320 324 329 330 330 330 329 326 319 318 316 316 314 310 305 301 300 301 301 299 301 308 321 335 351 2 38 76 92 93 91 87 82 74 61 45 29 18 9 5 2 4 4 6 5 4 6 9 9 6 351 293 252 242 240 240 242 243 242 240 237 236 232 230 230 225 213 206 208 210 204 173 132 120 106 100 105 113 116 103 8 349 332 320 327 20 28 26 26 27 65 159 162
357 357 357 357 357 356 352 345 334 326 326 336 342 339 334 334 332 324 318 319 317 313 310 306 301 300 304 306 307 309 313 325 339 353 12 57 94 103 108 108 106 102 98 90 79 63 41 23 11 1 356 355 356 356 354 353 356 0 4 4 359 337 288 262 253 250 249 248 247 246 245 244 240 235 233 232 227 221 218 218 216 202 165 141 107 101 114 114 108 88 54 21 331 309 314 1 22 26 26 25 35 168 174
357 359 1 1 359 357 354 345 336 333 343 357 358 345 342 342 336 327 323 328 323 317 314 307 307 315 322 320 323 329 338 349 3 26 77 102 110 114 115 116 114 113 108 102 93 76 50 25 4 353 346 345 345 345 344 344 347 352 356 357 353 339 312 281 263 256 253 252 250 249 250 251 248 243 238 236 233 230 228 226 222 213 202 200 179 143 138 129 118 99 68 53 31 325 307 330 3 23 25 26 27 167 186
358 1 1 1 357 355 354 345 342 348 3 12 14 5 2 357 352 341 340 342 337 328 318 315 331 344 343 341 346 356 6 17 39 75 102 112 115 117 119 119 119 118 116 113 107 95 63 16 351 342 336 334 334 334 335 336 340 345 348 348 345 338 325 302 280 266 260 257 255 254 252 252 251 248 243 239 236 233 232 233 229 220 212 212 209 193 167 154 141 123 94 66 55 31 294 292 328 14 19 23 25 41 196
357 359 359 357 355 352 352 348 354 4 24 34 38 35 25 19 11 3 358 358 354 340 328 344 6 12 2 2 11 21 33 48 74 98 108 111 115 118 120 121 121 122 122 124 123 125 113 321 319 319 322 322 323 324 326 330 336 340 343 342 341 340 335 324 305 287 277 271 266 262 257 254 252 251 249 244 239 236 235 236 234 228 221 218 217 213 199 187 169 155 149 91 68 65 51 268 287 337 2 12 18 19 209
352 354 356 355 352 349 350 352 1 16 36 48 52 48 42 34 24 19 14 15 9 355 351 17 28 27 22 27 37 49 62 78 91 101 107 109 113 116 120 122 124 126 130 134 144 158 190 236 263 278 290 296 304 311 320 329 334 338 340 340 344 346 345 342 330 316 307 294 285 276 269 262 259 258 256 252 247 242 239 238 238 235 231 227 224 222 216 207 191 178 181 187 99 63 69 102 260 303 332 347 3 6 347
346 349 352 354 352 348 349 356 7 25 47 53 58 56 51 44 37 31 26 21 13 7 18 36 42 44 44 51 61 73 84 92 97 100 103 106 110 115 119 124 126 131 138 145 155 174 197 220 231 243 250 266 284 305 323 332 336 338 340 343 347 353 357 351 344 340 334 320 306 293 283 274 270 266 263 259 255 250 245 241 240 239 238 237 234 230 224 215 203 192 194 209 236 297 15 78 95 338 317 322 334 349 351
341 347 350 353 350 347 351 1 14 30 48 53 56 56 53 48 44 41 37 31 24 26 36 45 52 58 64 74 84 92 99 102 102 102 103 106 111 115 119 125 129 136 142 151 164 178 197 213 225 233 242 262 293 324 338 340 340 340 341 346 353 356 356 358 355 353 349 340 328 312 295 285 279 274 269 265 260 256 250 245 242 241 241 243 243 240 232 220 208 201 204 216 234 261 280 327 83 116 287 299 312 326 333
338 345 349 351 348 350 357 9 21 32 43 47 50 51 50 48 47 46 44 41 39 42 48 56 63 71 79 90 98 104 106 107 106 106 107 109 113 118 122 126 131 135 141 149 164 178 199 217 227 241 270 322 353 358 357 349 346 345 347 355 2 6 4 5 4 2 1 358 351 338 318 301 290 284 278 273 267 261 255 249 244 242 242 244 246 247 242 227 212 206 211 220 230 246 263 276 277 255 236 263 289 305 312
337 344 348 350 351 356 7 20 29 35 39 41 43 44 47 49 48 49 48 50 51 53 59 65 72 80 89 98 104 106 107 108 110 110 112 114 117 121 124 128 131 134 136 141 150 160 176 200 245 335 5 13 17 15 7 359 357 357 0 14 17 16 13 12 11 10 9 10 10 5 352 333 314 299 291 283 277 270 262 254 248 245 244 244 246 248 248 235 217 210 215 223 230 237 247 264 274 270 251 248 263 283 293
333 346 352 356 1 9 21 29 35 37 37 38 39 40 42 44 46 48 51 54 59 63 66 71 78 86 94 99 102 105 107 110 112 113 115 117 119 122 125 127 130 130 132 130 130 131 123 97 51 36 30 28 26 20 13 8 6 11 23 32 29 23 19 16 14 13 13 14 17 20 16 8 352 331 310 298 290 282 273 262 252 246 244 244 245 246 246 238 225 215 216 223 226 226 229 252 273 274 256 240 245 269 279
335 4 5 13 20 26 34 37 39 38 38 36 36 37 38 40 43 46 48 52 58 64 69 76 83 90 95 97 100 104 108 111 113 114 115 117 119 120 121 122 122 121 119 115 112 104 90 73 56 46 41 35 29 22 17 15 13 28 45 45 38 29 22 17 15 14 13 12 17 23 26 26 21 8 346 325 312 302 292 282 267 254 247 246 245 245 244 239 230 222 220 223 221 216 213 228 255 262 247 228 232 265 275
131 73 42 38 38 41 43 43 41 38 38 35 35 36 37 38 40 43 45 49 53 60 67 76 84 90 93 96 100 104 107 109 111 113 113 115 114 115 114 112 111 107 104 98 91 84 73 67 58 51 45 38 30 23 19 18 23 43 57 53 45 35 24 19 18 17 15 12 15 21 28 31 32 27 19 8 356 340 327 340 328 287 255 248 245 245 245 242 237 230 225 224 220 214 207 208 216 225 218 205 211 256 269
132 96 69 56 49 49 48 46 43 40 37 37 37 37 38 38 39 41 43 46 51 58 65 74 81 87 90 94 98 100 103 104 106 107 108 108 108 106 103 100 96 93 90 86 81 75 70 66 60 54 49 40 32 27 24 17 33 55 61 55 47 37 27 22 21 19 18 16 18 23 29 31 32 32 31 28 27 23 16 31 35 26 314 252 245 244 245 244 242 237 232 228 222 213 205 205 198 165 152 187 195 201 244
125 101 78 62 56 52 49 47 44 41 38 37 37 37 39 39 39 40 43 47 53 61 70 77 81 83 87 90 92 94 94 94 95 97 100 100 99 97 94 90 86 83 81 78 76 74 72 68 67 63 55 48 41 35 31 23 43 61 61 53 44 34 25 22 21 20 19 20 26 31 32 30 29 31 32 33 35 38 41 41 44 43 34 312 248 242 242 243 243 241 237 232 226 217 208 208 212 197 139 182 199 188 157
117 97 78 62 55 52 50 48 45 42 39 38 38 37 39 40 40 41 45 50 58 68 78 82 84 85 87 88 89 88 87 86 85 86 89 91 90 88 85 81 78 75 74 73 73 72 72 72 71 68 65 59 54 49 43 37 50 61 62 54 46 37 29 25 24 23 23 27 34 39 39 33 28 27 30 33 35 39 42 29 5 344 5 320 266 242 239 240 242 242 239 235 229 221 213 212 217 217 175 184 199 201 158
110 91 74 62 54 51 48 47 44 42 39 39 39 39 40 41 43 45 49 56 66 76 83 86 88 89 89 89 88 87 85 83 81 81 81 83 83 81 78 74 71 69 67 67 67 69 69 70 71 71 71 71 68 63 56 52 55 58 61 60 55 48 40 34 30 28 28 30 35 39 40 37 30 25 27 31 34 36 39 28 7 342 321 306 292 272 250 242 241 241 240 236 230 223 217 215 217 218 204 197 196 194 178
100 83 69 58 52 49 46 45 44 42 41 40 41 43 44 45 46 49 54 64 74 82 86 90 91 92 92 90 89 86 83 81 79 78 78 78 77 75 71 67 64 61 60 60 61 60 61 61 62 66 72 76 76 70 62 56 51 50 53 60 63 59 53 45 38 34 32 31 31 32 33 34 31 26 26 30 33 36 35 31 22 10 355 341 324 303 280 259 249 246 243 238 231 225 220 217 218 219 217 215 203 185 193
87 72 61 54 49 46 44 43 43 42 41 42 43 46 48 48 50 52 60 71 82 88 92 94 95 95 94 91 87 84 80 76 73 73 74 74 72 68 65 61 58 56 55 55 55 54 53 52 53 55 59 66 75 74 68 61 53 47 43 49 58 62 60 54 48 41 37 34 31 28 27 27 27 28 28 31 34 36 36 35 31 27 20 15 4 344 310 282 266 257 251 243 235 228 223 219 219 221 223 226 218 192 195
79 65 57 50 45 44 43 43 42 42 41 41 43 46 49 50 52 57 66 81 91 95 98 99 99 98 95 91 86 81 77 72 69 68 70 69 67 63 59 57 55 54 54 54 54 53 53 53 53 49 45 47 66 78 77 73 67 57 45 43 51 57 56 53 50 46 41 37 32 29 27 25 26 28 31 33 35 36 37 37 35 33 30 27 24 13 344 314 292 277 266 255 245 235 227 221 220 221 225 230 228 216 198
72 61 54 48 44 42 42 42 42 42 41 41 43 46 49 50 53 59 70 88 98 101 102 104 103 100 95 90 85 79 75 69 65 64 65 63 60 58 56 55 54 54 55 55 55 55 57 59 58 55 50 48 62 78 86 86 83 76 61 50 49 51 49 47 45 44 41 39 34 30 28 27 27 30 35 37 36 36 37 36 36 35 32 29 25 18 7 351 335 318 300 282 265 250 237 227 223 223 226 231 235 234 221
67 57 50 45 42 41 40 41 42 43 43 42 44 48 51 53 56 63 73 92 104 109 108 107 105 100 94 89 84 79 75 70 63 59 59 59 58 56 55 55 55 55 56 57 57 58 61 63 64 63 61 59 64 75 87 93 93 87 78 66 57 50 45 41 39 37 37 40 37 32 29 29 30 34 39 41 39 37 36 36 35 35 35 33 29 25 21 15 7 357 343 325 304 280 257 241 231 228 229 232 237 241 241
61 52 46 43 39 37 39 39 42 45 47 47 50 53 56 58 62 69 80 96 110 114 114 111 106 99 94 89 85 81 78 74 67 59 57 58 59 58 57 57 56 57 57 58 60 62 65 67 68 67 66 65 66 71 83 94 96 91 86 82 75 65 55 45 38 33 34 40 40 35 30 30 34 39 43 45 44 42 40 38 36 36 39 39 37 34 30 27 24 18 11 1 349 330 299 267 248 239 235 235 237 241 244
57 48 42 37 35 34 35 37 42 47 50 52 57 63 66 68 71 77 90 105 116 120 117 112 106 100 95 91 87 85 84 80 73 65 62 61 61 61 59 59 58 58 59 61 64 67 69 70 70 69 67 66 66 69 77 87 91 88 85 90 90 84 73 59 47 40 39 42 42 38 33 33 38 43 46 48 47 46 45 44 41 41 44 44 42 39 37 35 33 30 26 22 17 11 359 329 285 259 248 243 241 242 243
52 43 37 34 32 31 31 35 42 48 54 58 64 72 77 80 83 90 102 116 125 127 123 115 107 101 97 93 91 91 90 85 77 73 70 68 65 63 63 62 62 62 64 66 70 73 75 74 71 68 66 64 66 69 74 79 81 80 81 90 95 93 82 67 55 51 54 52 47 42 39 40 42 46 48 49 47 47 48 50 49 48 47 46 44 43 41 39 37 34 32 31 29 27 24 17 359 318 277 258 250 246 244
48 39 33 30 29 29 29 33 40 49 56 62 69 78 85 90 96 103 113 124 132 133 128 118 109 103 99 95 95 95 94 87 80 78 78 77 73 69 67 66 67 67 69 73 77 78 77 73 69 66 63 63 65 68 73 77 78 80 83 90 95 94 84 70 60 57 60 58 54 51 47 44 44 45 46 45 45 47 49 51 51 49 46 44 43 43 43 40 37 35 34 33 32 31 30 28 24 14 349 301 269 255 250
45 36 30 27 26 28 30 34 41 50 58 65 75 84 94 101 108 116 124 130 135 137 132 121 113 107 103 99 99 98 95 89 84 84 86 86 83 77 73 72 72 73 76 79 80 79 75 70 65 63 63 63 65 68 71 74 77 80 84 91 96 95 87 75 67 63 61 57 56 55 52 45 44 46 46 43 41 43 47 49 49 46 43 42 43 43 43 41 39 38 36 34 32 30 28 27 26 24 19 3 326 284 264
45 33 27 26 27 29 33 38 45 53 63 72 84 95 103 110 118 126 132 136 139 139 135 126 117 110 107 106 104 101 96 91 90 92 95 95 92 87 82 79 78 78 78 78 76 73 69 65 62 62 63 65 67 69 71 73 75 77 81 89 97 99 93 84 75 70 66 60 56 55 52 49 50 52 51 47 44 43 45 47 48 47 45 45 46 47 47 46 44 42 39 35 31 28 26 24 23 22 23 20 11 346 302
45 32 27 26 28 32 38 42 50 60 71 84 98 108 114 119 126 133 139 141 143 142 138 131 122 115 112 112 111 105 97 96 98 102 104 103 99 95 89 84 78 73 69 67 66 65 63 61 61 62 64 67 69 70 72 74 76 76 77 83 96 102 100 93 86 80 75 69 64 61 58 58 59 61 60 59 56 54 51 52 55 57 58 57 55 55 56 54 50 44 37 30 25 23 22 22 20 19 19 20 20 14 359
49 33 28 29 33 38 44 49 59 70 82 98 112 120 122 126 132 140 145 146 146 146 143 136 128 122 121 121 117 109 101 104 107 109 111 109 103 96 86 75 63 54 50 53 58 61 62 61 61 63 66 68 70 71 73 75 77 76 75 80 93 104 106 103 98 93 89 85 79 74 69 67 67 68 68 73 73 69 65 66 69 72 72 68 65 63 63 58 51 44 35 27 22 20 21 22 21 18 16 16 17 17 16
54 37 33 37 43 48 52 57 67 81 93 108 119 125 126 131 137 144 149 151 149 147 145 140 135 132 132 131 123 113 107 112 113 113 113 110 102 89 72 53 41 36 38 50 59 63 63 63 63 65 67 68 70 71 73 75 77 77 77 79 89 101 107 108 107 107 106 102 93 84 78 73 73 74 74 81 83 82 78 79 80 79 76 70 68 68 66 59 52 44 37 30 26 25 26 28 27 23 18 15 14 15 16
70 55 51 57 63 63 61 68 79 91 102 112 120 126 129 134 141 148 154 154 152 150 147 143 141 141 143 139 127 116 114 118 117 113 110 105 94 76 58 44 37 39 48 59 65 66 65 65 66 66 66 67 68 69 71 73 75 76 77 79 84 91 97 100 101 104 108 105 97 89 83 76 75 79 85 83 85 89 90 90 86 79 73 67 69 71 67 61 53 45 39 38 39 39 37 36 35 31 25 20 15 13 14
112 93 85 84 79 78 80 86 90 95 103 112 119 126 131 136 143 149 154 155 154 152 149 146 146 148 152 143 127 116 116 116 114 111 107 98 85 72 60 52 49 53 61 66 67 67 66 67 67 67 66 65 66 67 69 71 73 74 76 78 79 80 80 79 78 78 80 85 91 93 88 77 72 77 88 87 88 93 95 94 90 82 72 68 69 70 66 62 51 43 40 46 51 51 47 43 39 35 30 25 21 17 13
147 131 113 101 95 95 99 97 95 96 103 111 118 125 131 137 143 149 152 154 153 152 149 148 149 154 157 145 126 117 115 113 110 107 102 93 84 75 68 61 60 63 67 68 68 67 66 67 67 66 65 64 64 65 67 69 70 72 73 76 77 76 73 70 67 65 65 71 83 89 82 66 60 66 83 93 96 93 90 84 83 81 75 68 69 73 71 61 47 41 43 52 60 60 56 51 46 41 37 32 26 21 17
158 142 126 114 111 111 109 101 97 97 102 110 117 124 131 136 141 146 150 153 154 153 151 151 153 157 159 145 125 116 114 112 110 105 98 91 85 79 73 67 66 66 68 68 66 65 66 66 66 66 65 64 63 63 64 66 69 70 72 74 76 77 75 72 69 67 66 67 70 70 62 54 52 56 67 80 86 83 74 67 67 69 66 65 72 79 74 57 45 41 45 56 65 68 66 61 55 50 47 43 37 30 24
164 148 132 122 119 117 114 106 101 100 102 109 116 123 129 134 139 143 148 152 154 154 153 154 157 159 157 140 124 117 114 113 112 107 97 91 87 82 75 70 67 67 68 66 65 64 64 64 65 65 65 64 63 62 62 65 68 70 72 74 76 77 77 75 72 70 68 67 66 63 59 56 56 59 62 66 69 69 66 60 57 58 59 65 75 81 73 54 45 43 47 56 65 71 73 68 62 56 52 49 47 43 37
167 150 136 131 126 122 117 111 106 103 104 109 115 122 128 132 137 141 146 151 154 154 154 156 157 156 151 137 124 119 117 116 114 106 98 92 89 83 77 71 69 68 67 65 64 62 62 62 63 64 64 64 63 62 63 65 68 71 73 75 75 75 75 74 72 70 68 67 65 63 62 61 61 63 64 64 65 65 66 63 61 61 63 70 77 79 71 56 49 48 53 58 65 72 76 72 66 59 55 52 50 50 49
167 152 141 137 134 129 121 115 111 107 106 109 114 120 127 130 135 140 146 150 152 153 154 154 153 151 144 134 125 121 119 120 115 105 97 95 92 87 80 75 71 68 66 64 62 61 61 61 62 63 63 63 63 64 65 67 69 72 75 76 76 74 73 72 71 69 68 66 64 62 62 62 63 64 65 65 65 66 67 69 69 68 68 73 78 79 73 59 53 55 62 59 61 69 77 75 67 61 58 56 54 54 54
169 155 146 141 138 134 128 121 115 110 107 109 114 120 127 131 135 140 146 149 149 151 153 152 150 146 141 134 128 123 122 122 115 105 98 97 95 91 85 80 74 69 66 63 61 61 61 61 62 62 63 63 63 64 66 68 70 73 76 77 76 75 73 72 71 69 67 65 63 62 61 61 62 63 64 65 65 65 67 69 71 72 72 74 77 79 76 64 58 59 64 54 49 53 67 73 69 62 59 59 58 57 55
170 157 150 146 142 138 134 126 118 111 109 110 116 123 130 135 139 142 146 147 146 147 150 151 148 143 141 138 132 128 125 123 115 107 102 100 98 94 89 84 78 72 67 64 62 62 63 63 63 63 63 63 63 64 66 67 69 72 75 75 75 74 73 71 70 68 66 65 63 62 62 62 62 63 63 64 64 64 65 66 69 72 74 77 78 79 77 66 59 58 56 46 38 35 40 53 60 59 57 57 56 55 53
172 160 153 150 147 143 137 129 121 114 111 113 118 126 133 138 141 143 146 146 144 144 146 149 146 142 140 140 137 132 128 124 117 111 107 104 101 97 94 88 82 76 71 67 66 66 66 66 65 64 64 64 65 65 66 67 68 70 72 73 73 72 70 69 68 67 65 64 64 63 63 62 62 62 62 62 63 63 63 64 66 69 72 76 79 78 71 59 54 51 47 39 32 27 26 29 36 46 50 50 48 46 46
174 164 157 153 150 146 141 132 123 117 113 116 122 129 135 139 142 144 146 146 144 142 143 146 147 142 138 141 139 134 129 125 119 114 112 108 104 101 97 93 88 82 76 72 70 69 69 68 67 66 66 67 67 67 67 68 69 70 71 71 71 70 69 68 67 66 65 65 64 63 63 62 62 61 61 61 61 62 62 63 64 65 67 69 71 71 65 54 49 47 44 37 32 29 27 28 31 39 47 49 47 44 43
176 168 161 157 155 151 144 135 127 120 117 120 125 131 137 141 143 145 147 147 144 142 142 146 150 147 139 141 140 137 131 126 122 118 114 111 108 105 102 98 93 87 81 76 73 72 70 69 68 69 69 69 69 69 70 71 71 71 72 72 71 71 70 68 67 66 65 65 64 63 62 61 61 60 60 60 59 60 60 61 61 62 63 64 64 63 60 54 50 47 45 41 37 34 33 32 34 40 47 51 50 46 43
178 172 166 163 160 155 147 137 129 124 121 125 130 135 140 142 145 147 150 150 147 143 142 146 151 153 147 144 142 138 132 127 124 121 117 114 112 110 107 103 97 92 86 80 76 74 72 71 71 71 72 71 70 71 72 72 72 72 72 72 72 71 70 69 68 66 66 65 64 63 62 61 60 60 59 58 58 58 58 58 58 59 59 59 59 58 55 52 48 46 45 43 41 39 37 36 37 40 45 51 51 45 39
179 174 170 167 165 159 149 140 132 127 126 130 134 139 142 144 147 149 151 153 152 148 145 146 149 153 151 145 140 136 131 127 124 123 121 118 115 114 111 106 101 95 89 83 78 75 74 72 72 72 72 72 72 72 73 73 74 74 74 74 73 73 72 70 69 68 67 66 64 63 62 61 60 59 59 58 57 56 56 56 56 56 56 56 55 54 51 48 45 44 44 44 44 43 41 39 39 40 44 48 49 45 37
181 176 172 170 168 162 152 142 134 131 131 134 139 142 145 147 149 151 152 155 156 155 150 148 148 150 149 145 141 136 131 128 127 126 124 121 120 117 113 109 104 98 91 85 81 78 75 73 72 72 72 73 73 73 74 75 75 75 75 75 75 74 74 73 71 70 69 67 66 65 63 62 61 60 59 58 57 56 55 55 54 54 54 54 53 51 49 47 44 42 43 44 45 44 43 41 41 41 43 46 48 44 36
182 178 176 174 170 164 154 145 138 134 135 139 142 145 148 149 151 154 156 157 160 161 159 154 151 149 148 147 145 140 135 133 132 131 128 125 123 119 115 112 107 101 94 89 84 80 77 74 73 73 73 73 74 74 75 76 77 77 77 77 77 76 75 74 73 72 70 69 68 67 65 63 62 60 59 58 57 56 55 54 53 53 53 53 52 51 49 46 44 43 43 45 46 46 44 43 42 42 43 45 45 42 37
183 180 178 176 172 166 156 147 140 138 139 142 145 147 149 151 153 156 158 161 163 164 162 161 157 152 148 147 146 143 139 137 138 137 133 129 125 121 118 115 111 105 98 93 87 83 78 76 74 74 74 74 75 75 76 77 77 77 77 77 77 77 76 75 74 73 72 71 69 68 66 65 63 61 60 59 58 57 56 55 54 53 52 52 52 51 49 47 45 43 43 46 48 47 46 44 43 43 42 42 41 39 36
184 182 179 178 174 168 159 150 144 141 142 144 147 149 151 152 154 157 160 163 165 164 163 164 164 159 151 148 147 145 143 142 143 143 140 133 128 124 122 119 114 109 104 98 92 86 82 79 77 76 75 75 75 76 77 76 77 77 77 77 77 77 76 75 74 73 72 71 70 69 67 66 64 63 62 60 59 58 56 55 54 53 52 52 52 51 49 48 46 44 43 46 48 49 47 46 45 44 42 41 39 37 36
186 183 181 178 175 169 162 153 147 145 145 146 148 151 153 154 156 158 161 165 167 167 164 165 167 167 159 150 147 147 147 146 148 151 151 141 134 131 127 123 118 113 108 103 98 92 88 84 81 79 78 77 77 77 77 77 77 77 77 77 76 76 75 75 74 73 72 71 70 68 67 66 65 63 62 61 59 58 57 56 54 53 52 52 51 51 50 48 46 44 43 44 47 49 48 46 45 44 43 41 39 38 37
187 185 182 180 176 171 164 156 151 148 148 148 151 153 155 157 158 160 164 168 170 170 167 163 165 168 167 154 148 147 148 149 153 158 157 147 140 136 132 128 123 118 113 109 104 99 93 89 86 83 82 80 79 79 79 79 78 78 77 77 76 75 75 74 73 72 71 70 69 67 66 65 64 63 62 60 59 58 56 55 54 53 52 51 51 50 49 48 46 45 43 43 46 48 48 46 45 44 42 41 40 39 37
187 185 184 182 178 172 166 159 154 151 151 152 154 156 157 159 160 162 164 168 170 171 170 164 162 162 164 156 148 146 147 149 154 159 157 146 139 135 132 130 125 120 118 114 110 104 100 95 91 89 87 85 84 83 82 81 80 79 78 77 76 75 74 74 73 71 70 69 67 66 64 63 62 61 60 59 58 57 55 54 53 52 51 50 49 49 48 47 46 45 44 43 44 46 47 46 44 43 42 41 39 39 38
187 186 185 184 180 174 167 161 156 154 155 155 156 156 157 158 159 161 163 166 169 171 171 168 162 159 160 157 151 148 148 150 153 155 156 148 141 137 134 129 124 121 122 117 111 108 105 101 97 94 92 89 88 87 85 84 83 81 80 78 77 76 75 74 72 71 69 67 65 64 62 61 59 58 57 57 55 54 53 52 52 51 49 49 48 48 47 47 45 44 44 43 43 44 46 45 43 42 41 40 39 38 37
188 186 185 184 182 176 169 163 159 156 157 157 158 157 156 156 158 160 162 166 167 169 170 172 170 164 160 158 154 151 150 151 152 153 155 152 144 138 135 132 130 129 128 123 114 108 109 108 104 99 96 93 92 91 88 86 85 84 82 80 78 77 75 74 72 70 67 66 64 62 61 59 58 56 55 54 53 51 51 50 49 48 47 47 46 46 46 45 44 43 43 42 42 43 44 43 42 40 39 39 38 37 37
188 187 186 185 183 178 171 165 161 159 158 159 160 159 157 155 156 158 160 163 165 166 169 173 176 176 169 161 156 153 152 153 154 154 155 153 146 140 139 138 135 133 133 130 128 126 124 119 112 105 101 99 97 96 93 90 88 86 84 82 80 78 76 74 71 69 67 65 64 62 60 59 57 55 53 52 50 49 48 47 46 45 45 44 43 43 43 43 42 41 41 40 40 41 41 41 40 39 38 37 37 36 36
188 187 186 186 183 179 172 166 163 162 161 161 161 160 157 155 154 155 157 160 162 166 170 174 177 181 181 170 160 155 153 154 155 157 158 155 149 146 146 142 137 133 138 142 140 137 133 127 117 109 106 105 102 99 96 94 91 89 87 85 82 80 77 74 71 69 68 66 64 63 62 60 57 55 53 51 50 48 46 45 44 43 42 41 40 40 40 39 39 38 38 38 37 38 38 38 38 37 36 36 35 35 34
188 187 187 185 183 179 174 169 166 165 164 163 162 161 159 156 155 155 156 159 162 165 169 175 178 180 182 180 169 159 155 155 156 159 161 159 155 152 151 147 146 148 155 157 149 143 138 131 121 112 112 112 108 102 99 98 95 93 90 87 84 81 78 75 73 71 69 68 66 64 63 61 58 56 54 52 50 48 46 44 42 41 40 39 38 37 36 36 36 35 35 35 34 34 34 34 34 34 33 33 33 33 32
188 187 187 185 183 180 176 172 170 169 167 165 164 163 161 159 157 156 156 157 159 162 165 171 177 180 179 180 176 167 159 156 157 159 162 163 162 161 161 162 162 164 165 159 151 145 140 133 129 127 124 118 113 108 105 102 100 96 93 89 86 83 80 77 75 73 71 69 67 65 64 62 59 57 55 53 50 49 46 44 42 40 38 37 36 35 34 34 33 33 33 32 32 31 30 30 30 30 30 30 29 29 29
188 187 187 185 183 180 177 175 174 172 170 168 166 166 164 162 159 157 155 155 155 157 161 167 172 176 178 178 177 173 165 159 157 158 161 164 167 169 172 176 175 167 159 152 147 141 137 136 136 135 131 125 119 115 112 108 103 100 96 92 89 86 83 80 77 75 72 70 67 65 63 61 59 57 55 53 51 49 47 44 42 40 38 36 35 33 32 32 31 31 31 30 30 29 28 27 27 27 26 26 26 26 26
188 187 186 185 183 181 179 178 177 175 172 170 169 168 167 164 161 159 156 155 154 155 157 161 166 170 174 176 177 175 170 163 159 158 159 163 165 166 166 168 162 153 148 146 144 139 134 136 139 139 135 131 127 123 118 114 109 104 100 96 93 89 85 82 78 75 73 70 68 64 62 60 57 55 52 51 49 47 45 43 41 39 37 35 34 32 31 30 29 29 28 28 28 27 26 24 24 24 23 23 22 22 22
189 187 186 185 183 182 181 180 179 177 174 172 170 170 169 167 164 162 160 157 156 154 154 156 159 163 168 171 172 173 171 167 163 160 157 158 158 156 151 149 145 142 141 141 140 138 135 134 134 134 132 129 128 127 124 120 115 110 105 101 97 93 89 84 80 76 73 70 67 63 60 57 54 51 49 47 45 44 42 41 39 37 36 34 32 31 29 28 27 26 26 26 26 25 24 22 22 21 21 20 20 19 19